UAE34 LTFM-UKOO

Flight info

Callsign UAE34
Flight time 0h 55m
Altitude 34000
Route MAKOL N617 BINBI/N0453F350 DCT OSDOR N617 AMNEZ
Aircraft A388/J-SADE2E3FGHIJ3J4J5M1RWXY/LB1D1

Departure

Time 2026-04-18 07:43
Airport İstanbul Airport (LTFM)

Arrival

Time 2026-04-18 08:39
Airport Odesa International Airport (UKOO)
Time Latitude Longitude Altitude Speed Heading
2026-04-18 06:42 41.26242 28.73625 336 ft 0 kts 71°
2026-04-18 06:45 41.25913 28.73521 335 ft 0 kts 104°
2026-04-18 07:16 41.25915 28.73511 334 ft 2 kts 104°
2026-04-18 07:16 41.25919 28.73492 334 ft 2 kts 104°
2026-04-18 07:16 41.25925 28.73459 334 ft 4 kts 104°
2026-04-18 07:17 41.25931 28.73425 334 ft 0 kts 101°
2026-04-18 07:17 41.25931 28.73416 334 ft 2 kts 89°
2026-04-18 07:17 41.25926 28.73398 334 ft 3 kts 60°
2026-04-18 07:17 41.25910 28.73383 334 ft 2 kts 21°
2026-04-18 07:18 41.25908 28.73382 334 ft 0 kts 18°
2026-04-18 07:38 41.25909 28.73383 339 ft 4 kts 20°
2026-04-18 07:39 41.25971 28.73428 335 ft 11 kts 31°
2026-04-18 07:39 41.26038 28.73470 335 ft 14 kts 19°
2026-04-18 07:39 41.26137 28.73506 336 ft 11 kts 13°
2026-04-18 07:39 41.26205 28.73499 335 ft 8 kts 319°
2026-04-18 07:40 41.26223 28.73414 335 ft 11 kts 269°
2026-04-18 07:40 41.26221 28.73287 335 ft 16 kts 269°
2026-04-18 07:40 41.26218 28.73144 336 ft 16 kts 268°
2026-04-18 07:40 41.26216 28.73036 336 ft 0 kts 270°
2026-04-18 07:41 41.26216 28.73020 336 ft 5 kts 269°
2026-04-18 07:41 41.26215 28.72897 337 ft 18 kts 269°
2026-04-18 07:41 41.26213 28.72734 338 ft 18 kts 269°
2026-04-18 07:41 41.26210 28.72590 335 ft 11 kts 271°
2026-04-18 07:42 41.26244 28.72525 336 ft 9 kts 341°
2026-04-18 07:42 41.26291 28.72519 336 ft 0 kts
2026-04-18 07:42 41.26314 28.72520 334 ft 15 kts
2026-04-18 07:42 41.26698 28.72518 334 ft 94 kts 358°
2026-04-18 07:43 41.27545 28.72493 361 ft 143 kts 359°
2026-04-18 07:43 41.28556 28.72478 910 ft 143 kts
2026-04-18 07:43 41.29546 28.72470 1594 ft 141 kts
2026-04-18 07:43 41.30521 28.72390 2214 ft 145 kts 360°
2026-04-18 07:44 41.31580 28.72301 2531 ft 158 kts
2026-04-18 07:44 41.32716 28.72304 2759 ft 167 kts
2026-04-18 07:44 41.33913 28.72336 2879 ft 178 kts
2026-04-18 07:44 41.35216 28.72365 3002 ft 205 kts
2026-04-18 07:45 41.36607 28.72353 3342 ft 228 kts
2026-04-18 07:45 41.38260 28.72295 4030 ft 238 kts
2026-04-18 07:45 41.39923 28.72241 5003 ft 243 kts
2026-04-18 07:45 41.41628 28.72205 5958 ft 246 kts
2026-04-18 07:46 41.43349 28.72008 6918 ft 251 kts 355°
2026-04-18 07:46 41.45127 28.71936 7659 ft 260 kts
2026-04-18 07:46 41.46935 28.72255 8579 ft 262 kts 12°
2026-04-18 07:46 41.48701 28.72857 9579 ft 263 kts 17°
2026-04-18 07:47 41.50470 28.73609 10319 ft 272 kts 18°
2026-04-18 07:47 41.52344 28.74417 10624 ft 294 kts 18°
2026-04-18 07:47 41.54349 28.75249 10908 ft 314 kts 17°
2026-04-18 07:47 41.56473 28.76100 11540 ft 321 kts 16°
2026-04-18 07:48 41.58633 28.76951 12266 ft 326 kts 16°
2026-04-18 07:48 41.60822 28.77808 13036 ft 329 kts 15°
2026-04-18 07:48 41.63025 28.78671 13828 ft 331 kts 15°
2026-04-18 07:48 41.65263 28.79548 14393 ft 338 kts 15°
2026-04-18 07:49 41.67542 28.80442 15006 ft 343 kts 15°
2026-04-18 07:49 41.69839 28.81346 15713 ft 345 kts 14°
2026-04-18 07:49 41.72160 28.82259 16268 ft 352 kts 14°
2026-04-18 07:49 41.74547 28.83198 16703 ft 361 kts 14°
2026-04-18 07:50 41.76962 28.84150 17427 ft 362 kts 14°
2026-04-18 07:50 41.79374 28.85102 17914 ft 370 kts 13°
2026-04-18 07:50 41.81873 28.86086 18328 ft 378 kts 13°
2026-04-18 07:50 41.84405 28.87090 18866 ft 382 kts 13°
2026-04-18 07:51 41.86975 28.88104 19316 ft 387 kts 13°
2026-04-18 07:51 41.89569 28.89129 19816 ft 391 kts 14°
2026-04-18 07:51 41.92198 28.90171 20257 ft 396 kts 13°
2026-04-18 07:51 41.94869 28.91229 20710 ft 401 kts 14°
2026-04-18 07:52 41.97555 28.92296 21260 ft 404 kts 14°
2026-04-18 07:52 42.00284 28.93380 21596 ft 412 kts 14°
2026-04-18 07:52 42.03021 28.94468 22093 ft 415 kts 14°
2026-04-18 07:52 42.05793 28.95572 22633 ft 417 kts 14°
2026-04-18 07:53 42.08599 28.96690 22984 ft 424 kts 14°
2026-04-18 07:53 42.11439 28.97822 23516 ft 426 kts 15°
2026-04-18 07:53 42.14290 28.98960 23918 ft 430 kts 15°
2026-04-18 07:53 42.17173 29.00112 24311 ft 433 kts 14°
2026-04-18 07:54 42.20069 29.01270 24757 ft 435 kts 14°
2026-04-18 07:54 42.22986 29.02437 25168 ft 439 kts 14°
2026-04-18 07:54 42.25923 29.03613 25603 ft 442 kts 14°
2026-04-18 07:54 42.28886 29.04801 26041 ft 446 kts 14°
2026-04-18 07:55 42.31839 29.05986 26506 ft 449 kts 14°
2026-04-18 07:55 42.34891 29.07212 26938 ft 455 kts 14°
2026-04-18 07:55 42.37909 29.08425 27349 ft 460 kts 14°
2026-04-18 07:55 42.40985 29.09663 27839 ft 464 kts 14°
2026-04-18 07:56 42.44095 29.10916 28319 ft 468 kts 14°
2026-04-18 07:56 42.47227 29.12180 28792 ft 472 kts 14°
2026-04-18 07:56 42.50395 29.13459 29280 ft 476 kts 14°
2026-04-18 07:56 42.53593 29.14751 29697 ft 482 kts 14°
2026-04-18 07:57 42.56826 29.16059 30165 ft 486 kts 14°
2026-04-18 07:57 42.60083 29.17379 30668 ft 488 kts 14°
2026-04-18 07:57 42.63305 29.18686 31155 ft 490 kts 14°
2026-04-18 07:57 42.66577 29.20014 31632 ft 492 kts 14°
2026-04-18 07:58 42.73194 29.22705 32502 ft 499 kts 14°
2026-04-18 07:58 42.76527 29.24063 32973 ft 502 kts 14°
2026-04-18 07:58 42.79883 29.25431 33419 ft 504 kts 14°
2026-04-18 07:59 42.83259 29.26809 33882 ft 507 kts 14°
2026-04-18 07:59 42.86648 29.28194 34282 ft 510 kts 14°
2026-04-18 07:59 42.90044 29.29584 34691 ft 511 kts 14°
2026-04-18 07:59 42.93473 29.30989 34945 ft 517 kts 14°
2026-04-18 08:00 42.96905 29.32397 34941 ft 512 kts 14°
2026-04-18 08:00 43.03751 29.35211 34961 ft 514 kts 14°
2026-04-18 08:01 43.10627 29.38042 34944 ft 516 kts 14°
2026-04-18 08:01 43.17467 29.40867 34945 ft 516 kts 14°
2026-04-18 08:02 43.24342 29.43711 34948 ft 517 kts 14°
2026-04-18 08:02 43.31232 29.46569 34948 ft 517 kts 14°
2026-04-18 08:03 43.38136 29.49439 34952 ft 518 kts 14°
2026-04-18 08:03 43.45039 29.52316 34937 ft 519 kts 14°
2026-04-18 08:04 43.51926 29.55193 34941 ft 520 kts 14°
2026-04-18 08:04 43.58858 29.58095 34952 ft 520 kts 14°
2026-04-18 08:05 43.65802 29.61009 34942 ft 522 kts 14°
2026-04-18 08:05 43.72775 29.63877 34949 ft 521 kts 10°
2026-04-18 08:06 43.79792 29.66116 34953 ft 521 kts 10°
2026-04-18 08:06 43.86868 29.68404 34949 ft 522 kts 10°
2026-04-18 08:07 43.93939 29.70700 34963 ft 522 kts 10°
2026-04-18 08:07 44.01029 29.73005 34954 ft 523 kts 10°
2026-04-18 08:08 44.08123 29.75317 34966 ft 524 kts 10°
2026-04-18 08:08 44.15232 29.77639 34970 ft 524 kts 10°
2026-04-18 08:09 44.22298 29.79954 34964 ft 525 kts 10°
2026-04-18 08:09 44.29418 29.82292 34962 ft 525 kts 10°
2026-04-18 08:10 44.36534 29.84634 34969 ft 525 kts 10°
2026-04-18 08:10 44.43660 29.86986 34965 ft 526 kts 10°
2026-04-18 08:11 44.50742 29.89329 34967 ft 526 kts 10°
2026-04-18 08:11 44.57867 29.91691 34985 ft 526 kts 10°
2026-04-18 08:12 44.64980 29.94057 34929 ft 525 kts 10°
2026-04-18 08:12 44.68497 29.95231 34834 ft 514 kts 10°
2026-04-18 08:12 44.71943 29.96384 34704 ft 501 kts 10°
2026-04-18 08:12 44.75295 29.97507 34564 ft 489 kts 10°
2026-04-18 08:13 44.77476 29.98236 34316 ft 485 kts
2026-04-18 08:13 44.80755 29.99331 33749 ft 484 kts
2026-04-18 08:13 44.84030 30.00425 33184 ft 481 kts
2026-04-18 08:13 44.87275 30.01512 32676 ft 478 kts 10°
2026-04-18 08:14 44.90512 30.02598 32126 ft 476 kts 10°
2026-04-18 08:14 44.93723 30.03677 31623 ft 473 kts 10°
2026-04-18 08:14 44.96900 30.04751 31065 ft 469 kts 11°
2026-04-18 08:14 45.00026 30.06192 30239 ft 470 kts 18°
2026-04-18 08:15 45.03052 30.07760 29781 ft 458 kts 17°
2026-04-18 08:15 45.06036 30.09266 29092 ft 451 kts 17°
2026-04-18 08:15 45.08974 30.10740 28407 ft 445 kts 17°
2026-04-18 08:15 45.11835 30.12180 27780 ft 439 kts 17°
2026-04-18 08:16 45.14691 30.13623 27135 ft 433 kts 17°
2026-04-18 08:16 45.17504 30.15049 26479 ft 428 kts 17°
2026-04-18 08:16 45.20292 30.16464 25845 ft 423 kts 17°
2026-04-18 08:16 45.23045 30.17865 25250 ft 417 kts 17°
2026-04-18 08:17 45.25759 30.19248 24667 ft 411 kts 17°
2026-04-18 08:17 45.28436 30.20612 24206 ft 406 kts 17°
2026-04-18 08:17 45.31086 30.21965 23817 ft 403 kts 17°
2026-04-18 08:17 45.33716 30.23307 23415 ft 400 kts 17°
2026-04-18 08:18 45.36324 30.24641 22890 ft 397 kts 17°
2026-04-18 08:18 45.38922 30.25970 22266 ft 393 kts 17°
2026-04-18 08:18 45.41444 30.27263 21633 ft 388 kts 17°
2026-04-18 08:18 45.43968 30.28557 21040 ft 383 kts 17°
2026-04-18 08:19 45.46457 30.29835 20427 ft 378 kts 17°
2026-04-18 08:19 45.48919 30.31100 19827 ft 374 kts 17°
2026-04-18 08:19 45.51351 30.32351 19248 ft 369 kts 17°
2026-04-18 08:19 45.53757 30.33589 18688 ft 365 kts 17°
2026-04-18 08:20 45.56133 30.34812 18032 ft 363 kts 18°
2026-04-18 08:20 45.58493 30.36029 17407 ft 357 kts 18°
2026-04-18 08:20 45.60812 30.37226 16859 ft 351 kts 18°
2026-04-18 08:20 45.63095 30.38406 16287 ft 345 kts 18°
2026-04-18 08:21 45.65335 30.39564 15740 ft 340 kts 18°
2026-04-18 08:21 45.67546 30.40709 15192 ft 335 kts 18°
2026-04-18 08:21 45.69729 30.41839 14646 ft 331 kts 18°
2026-04-18 08:21 45.71867 30.43002 14485 ft 327 kts 24°
2026-04-18 08:22 45.73778 30.44617 14414 ft 320 kts 30°
2026-04-18 08:22 45.75640 30.46272 14334 ft 309 kts 30°
2026-04-18 08:22 45.77427 30.47862 14235 ft 298 kts 30°
2026-04-18 08:22 45.79171 30.49409 14143 ft 288 kts 29°
2026-04-18 08:23 45.80850 30.50894 13992 ft 279 kts 29°
2026-04-18 08:23 45.82447 30.52308 13742 ft 263 kts 28°
2026-04-18 08:23 45.83994 30.53674 13283 ft 256 kts 28°
2026-04-18 08:23 45.85443 30.54956 13197 ft 238 kts 29°
2026-04-18 08:24 45.86774 30.56141 12726 ft 217 kts 27°
2026-04-18 08:24 45.88045 30.57267 11953 ft 212 kts 26°
2026-04-18 08:24 45.89285 30.58362 11316 ft 203 kts 26°
2026-04-18 08:24 45.90454 30.59397 10745 ft 194 kts 28°
2026-04-18 08:25 45.91599 30.60408 10032 ft 194 kts 28°
2026-04-18 08:25 45.92572 30.61789 9130 ft 204 kts 59°
2026-04-18 08:25 45.92819 30.63805 8342 ft 210 kts 95°
2026-04-18 08:25 45.92399 30.65792 7599 ft 205 kts 99°
2026-04-18 08:26 45.92478 30.67758 6870 ft 193 kts 63°
2026-04-18 08:26 45.93262 30.69194 6179 ft 183 kts 32°
2026-04-18 08:26 45.94405 30.69885 5497 ft 176 kts 15°
2026-04-18 08:26 45.95567 30.70454 4829 ft 175 kts 18°
2026-04-18 08:27 45.96652 30.71033 4518 ft 157 kts 19°
2026-04-18 08:27 45.97656 30.71574 4056 ft 152 kts 18°
2026-04-18 08:27 45.98644 30.72100 3546 ft 151 kts 18°
2026-04-18 08:27 45.99636 30.72623 3105 ft 150 kts 18°
2026-04-18 08:28 46.00609 30.73133 2996 ft 152 kts 18°
2026-04-18 08:28 46.01592 30.73646 2994 ft 148 kts 18°
2026-04-18 08:28 46.02566 30.74156 3001 ft 147 kts 18°
2026-04-18 08:28 46.03520 30.74655 2996 ft 148 kts 18°
2026-04-18 08:29 46.04488 30.75164 2997 ft 147 kts 18°
2026-04-18 08:29 46.05455 30.75672 2999 ft 148 kts 17°
2026-04-18 08:29 46.06446 30.76190 2999 ft 155 kts 18°
2026-04-18 08:29 46.07479 30.76731 2995 ft 159 kts 18°
2026-04-18 08:30 46.08517 30.77276 3000 ft 159 kts 18°
2026-04-18 08:30 46.09559 30.77825 2996 ft 160 kts 18°
2026-04-18 08:30 46.10544 30.78344 3000 ft 160 kts 18°
2026-04-18 08:30 46.11529 30.78860 2997 ft 159 kts 18°
2026-04-18 08:31 46.12568 30.79407 2996 ft 159 kts 18°
2026-04-18 08:31 46.13640 30.79758 2992 ft 159 kts 358°
2026-04-18 08:31 46.14712 30.79384 2997 ft 160 kts 343°
2026-04-18 08:31 46.15773 30.78881 2994 ft 161 kts 344°
2026-04-18 08:32 46.16842 30.78415 2997 ft 161 kts 345°
2026-04-18 08:32 46.17907 30.77956 2999 ft 159 kts 345°
2026-04-18 08:32 46.18973 30.77499 2996 ft 159 kts 345°
2026-04-18 08:32 46.20011 30.77055 2928 ft 155 kts 345°
2026-04-18 08:33 46.21043 30.76613 2574 ft 154 kts 345°
2026-04-18 08:33 46.22073 30.76172 2151 ft 152 kts 344°
2026-04-18 08:33 46.23094 30.75733 2006 ft 154 kts 344°
2026-04-18 08:33 46.24127 30.75290 2000 ft 155 kts 344°
2026-04-18 08:34 46.25150 30.74851 2000 ft 155 kts 345°
2026-04-18 08:34 46.26199 30.74401 2004 ft 160 kts 345°
2026-04-18 08:34 46.27310 30.73925 2043 ft 175 kts 343°
2026-04-18 08:34 46.28444 30.73437 2002 ft 167 kts 345°
2026-04-18 08:35 46.29564 30.72955 2000 ft 167 kts 345°
2026-04-18 08:35 46.30615 30.72502 1996 ft 147 kts 345°
2026-04-18 08:35 46.31544 30.72103 1997 ft 135 kts 345°
2026-04-18 08:35 46.32433 30.71721 2000 ft 132 kts 345°
2026-04-18 08:36 46.33314 30.71348 1898 ft 132 kts 346°
2026-04-18 08:36 46.34202 30.71035 1693 ft 131 kts 348°
2026-04-18 08:36 46.35091 30.70745 1477 ft 131 kts 347°
2026-04-18 08:36 46.35971 30.70460 1334 ft 129 kts 347°
2026-04-18 08:37 46.36838 30.70136 1216 ft 128 kts 347°
2026-04-18 08:37 46.37696 30.69792 1020 ft 128 kts 345°
2026-04-18 08:37 46.38543 30.69421 815 ft 128 kts 343°
2026-04-18 08:37 46.39413 30.69061 628 ft 127 kts 343°
2026-04-18 08:38 46.40260 30.68677 459 ft 128 kts 344°
2026-04-18 08:38 46.41114 30.68319 290 ft 130 kts 344°
2026-04-18 08:38 46.41976 30.67948 182 ft 121 kts 344°
2026-04-18 08:38 46.42630 30.67669 179 ft 68 kts 343°
2026-04-18 08:39 46.42868 30.67566 180 ft 19 kts 343°
2026-04-18 08:39 46.42993 30.67513 180 ft 18 kts 343°
2026-04-18 08:39 46.43120 30.67459 180 ft 18 kts 343°
2026-04-18 08:39 46.43227 30.67413 181 ft 14 kts 342°
2026-04-18 08:40 46.43327 30.67383 181 ft 14 kts 15°
2026-04-18 08:40 46.43383 30.67489 180 ft 15 kts 67°
2026-04-18 08:40 46.43421 30.67649 180 ft 18 kts 73°
2026-04-18 08:40 46.43456 30.67826 180 ft 18 kts 73°
2026-04-18 08:41 46.43479 30.67934 180 ft 0 kts 73°